Погода Томпо

Погода Томпо : погода сейчас, прогноз погоды и архив. Всё, что Вы хотите узнать о погоде Томпо!

Хотите узнать прогноз погоды Томпо? Тогда Вам сюда: Погода Томпо

Поиск расширенной информации на нашем сайте:

Другие новости

Новости СМИ2

Главная страница сайта

Новости сайта

02.10.2013

Напоминаем, что на нашем новом сайте вы можете получить высокодетализированные прогнозы погоды по пунктам России, СНГ и мира (включающие важные для авиации метеовеличины, такие как направление и скорость ветра, видимость, явления погоды, количество и форма облачности, нижняя и верхняя граница облачности), а также ознакомиться с разнообразными материалами по авиационной метеорологии и подборкой полезных ссылок на эту тему.

Сайт Метеоцентр.Азия посвящён разработке технологий оптимизации авиаметеорологического обслуживания, включая проектирование и перспективное создание нескольких автоматизированных авиаметеорологических систем:
- система выпуска высокодетальных прогностических карт явлений погоды для нижнего воздушного пространства по России и ближнему зарубежью;
- система верификации прогнозов TAF (выпускаемых синоптиками официальных АМСГ РФ и ближнего зарубежья) и AUTOTAF (выпускаемых сайтом Метеоцентр.Азия) - выявление ошибок, онлайн-сопоставление с фактической погодой METAR, автоматическое внесение коррективов в прогнозы при резком отклонении фактической погоды от прогноза, подсчёт оправдываемости прогнозов по элементам и в целом;
- система обработки, анализа и отображения авиаметеорологической информации для применения провайдерами метеорологической информации.

Рекомендуем: Отрасли промышленности http://promyshlennosts.ru

Погода Томпо - сегодня

Время (UTC), дата Ветер
(°,м/с) 
Видим.   Явления Облачность Т
(°С)
Тd
(°С)
f(%) Тe
(°С)
Pmin
(гПа)
dP
(гПа)
Po
(мм)
O2
(г/м3)
Тmin Tmax R s Состояние
почвы
03 25.06.17 030 (СВ) //  20000 м    8/8 1000 м 
[Sc]
+12.6 +4 56 +13  1012  -0.1  724  278           
06 25.06.17 360 (С) //  20000 м    6/0 верхняя 
[Ci]
+15.6 +5.3 50 +16  1010.6  -0.9  723  275           
09 25.06.17 360 (С) //  20000 м    3/0 верхняя 
[Ci fib]
+17.7 +4.2 41 +18  1009.1  -1.1  722  273    +17.7       
12 25.06.17 000 (С) //  20000 м    ясно 
+18.4 +5.8 44 +18  1008.9  -0.2  722  272           
15 25.06.17 360 (С) //  20000 м    ясно 
+6.5 +4.7 88 +7  1010.9  0.2  722  283           
18 25.06.17 320 (СЗ) //  20000 м    ясно 
+4.9 +1.6 79 +5  1012.3  0.9  723  286           
21 25.06.17 310 (СЗ) //  20000 м    ясно 
+7 +3.2 77 +7  1012.5  0.6  723  284  +3.4        сухая 
00 26.06.17 360 (С) //  20000 м    3/0 верхняя 
[Ci fib]
+17 +4 42 +17  1010.1  -0.7  723  273           
03 26.06.17 000 (С) //  20000 м    3/0 верхняя 
[Ci fib]
+24.1 +5.7 31 +24  1006.8  -2.1  721  266           
06 26.06.17 170 (Ю) //  20000 м    3/0 верхняя 
[Ci fib]
+26.8 +0.7 18 +27  1004.6  -1.7  720  264           
09 26.06.17 180 (Ю) //  20000 м    4/0 верхняя 
[Ci fib]
+27.3 +2.1 20 +27  1003.5  -1  719  263    +27.7       
12 26.06.17 170 (Ю) //  20000 м    4/0 верхняя 
[Ci fib]
+24.6 +5.6 29 +25  1003.8  719  265           
15 26.06.17 000 (С) //  20000 м    3/0 верхняя 
[Ci fib]
+11.8 +7.7 76 +12  1007.1  1.1  720  277           
18 26.06.17 000 (С) //  20000 м    3/0 верхняя 
[Ci fib]
+4.5 +3.5 93 +5  1009.9  1.3  721  285           
21 26.06.17 000 (С) //  20000 м    ясно 
+8.4 +4.8 78 +8  1009.7  0.5  721  281  +3.1        сухая 
00 27.06.17 190 (Ю) //  20000 м    ясно 
+19.9 +9.6 51 +21  1007  -0.7  721  269           
03 27.06.17 150 (ЮВ) //  20000 м    ясно 
+26.2 +20.3 70 +47  1004.1  -1.7  720  260           
06 27.06.17 170 (Ю) //  20000 м    ясно 
+28.3 +12.3 37 +34  1001.7  -2  718  260           
09 27.06.17 170 (Ю) //  20000 м    ясно 
+28.4 +7.5 27 +28  1000.5  -1.1  717  260    +28.9       
12 27.06.17 170 (Ю) //  20000 м    ясно 
+25.7 +9.3 35 +27  1000.7  -0.2  717  262           
15 27.06.17 000 (С) //  20000 м    ясно 
+13.1 +9.2 77 +14  1003.6  0.8  718  274           
18 27.06.17 000 (С) //  20000 м    ясно 
+5 +4.1 94 +5  1006.1  718  284           
21 27.06.17 000 (С) //  20000 м    ясно 
+10.6 +8.1 85 +11  1004.7  -0.3  718  277  +5        сухая 
00 28.06.17 000 (С) //  20000 м  дым  ясно 
+18.8 +10 57 +21  1002.5  -0.8  718  269           
03 28.06.17 150 (ЮВ) //  20000 м    ясно 
+28 +6.2 25 +28  999.7  -1.4  717  261           
Время (UTC), дата Ветер
(°,м/с) 
Видим.   Явления Облачность Т
(°С)
Тd
(°С)
f(%) Тe
(°С)
Pmin
(гПа)
dP
(гПа)
Po
(мм)
O2
(г/м3)
Тmin Tmax R s Состояние
почвы

Для получения пояснительной информации подведите курсор к названию столбца.

ПОГОДА Томпо - архив

Всё, что Вы хотите узнать о погоде Томпо - удобно и подробно!

Выберите нужную дату (начиная с 1 января 2015* года) и нажмите кнопку "Найти".
Будут отображены архивные сводки погоды по пункту Томпо, начиная с указанной даты.


Отображать данные в формате CSV (для использования в таблицах Excel)


Внимание! Наш архив погоды предназначен исключительно для личного некоммерческого использования в познавательных целях. Если Вам необходимы официальные справки о состоянии погоды (для производственных, юридических, коммерческих и т.п. целей), обращайтесь в органы Росгидромета.

*Примечание: данная дата относится к архиву по метеостанциям СССР (Россия, СНГ, Балтия).
Архив по метеостанциям Зарубежной Европы и Азии (кроме Китая) хранится 10 дней, по другим регионам земного шара (Китай, Африка, Америка, Австралия, Океания) - 1 день.

Томпо - район местоположения метеостанции


Название, широта, долгота, высота метеостанции:
Томпо 63.9°ш. 135.9°д. 402 м над ур. моря [Российская Федерация]

Дополнительная информация

В oтличие oт бoльшинства пoгoдных сайтoв мы публикуем пoдрoбную метеoинфoрмацию в детальнoм прoфессиoнальнoм фoрмате.

Характеристики температуры и влажнoсти вoздуха измеряются на высoте 2 м в тени вдали oт зданий и деревьев.
Скoрoсть ветра измеряется на высoте 10 м (на урoвне рoста челoвека скoрoсть ветра ниже в 1.5-2 раза). Если метеoстанция нахoдится в гoрoде или в лесу, тo скoрoсть ветра занижена на 2-4 м/с пo сравнению с oткрытым местoм. Скoрoсть ветра над акватoриями крупных рек и oзёр, а также на вершинах хoлмoв на 2-5 м/с выше, чем в oбычных услoвиях.
Атмoсфернoе давление в разных тoчках местнoсти мoжет значительнo oтличаться oт давления на метеoстанции, в зависимoсти oт услoвий рельефа (при пoдъёме на 10 м давление пoнижается примернo на 1 мм рт.ст.).